Location: Malanoce
(44.2500°N, 7.4667°E)
Time: 05:11:02
(UTC+00:00)

IRAS Rocket - Pass Details

Date: 17 November 2025
Orbit: 845 x 876 km, 100.1° (Epoch: 09 December)

Event Time Altitude Azimuth Distance (km) Brightness Sun altitude
Rises 17:42:49 0° 158° (SSE) 3,438 7.2 -18.1°
Reaches altitude 10° 17:45:12 10° 156° (SSE) 2,501 6.5 -18.5°
Maximum altitude 17:50:44 77° 72° (ENE) 886 4.1 -19.5°
Drops below altitude 10° 17:56:16 10° 347° (NNW) 2,497 6.7 -20.5°
Sets 17:58:38 0° 346° (NNW) 3,433 7.5 -20.9°
